Time,TemperatureF,DewpointF,PressureIn,WindDirection,WindDirectionDegrees,WindSpeedMPH,WindSpeedGustMPH,Humidity,HourlyPrecipIn,Conditions,Clouds,dailyrainin,SolarRadiationWatts/m^2,SoftwareType,DateUTC
2013-04-30 00:06:00,46.8,39.0,30.30,ESE,108,0.0,1.0,74,0.00,,,0.00,0,weatherlink.com 1.10,2013-04-30 04:06:00,
2013-04-30 00:21:00,46.1,39.0,30.30,ESE,108,0.0,0.0,76,0.00,,,0.00,0,weatherlink.com 1.10,2013-04-30 04:21:00,
2013-04-30 00:36:00,45.4,39.0,30.30,ESE,108,0.0,1.0,77,0.00,,,0.00,0,weatherlink.com 1.10,2013-04-30 04:36:00,
2013-04-30 00:51:00,45.0,38.0,30.30,ESE,108,0.0,1.0,77,0.00,,,0.00,0,weatherlink.com 1.10,2013-04-30 04:51:00,
2013-04-30 01:06:00,44.5,38.0,30.30,ESE,108,0.0,0.0,78,0.00,,,0.00,0,weatherlink.com 1.10,2013-04-30 05:06:00,
2013-04-30 01:21:00,43.9,37.0,30.30,ESE,108,0.0,0.0,78,0.00,,,0.00,0,weatherlink.com 1.10,2013-04-30 05:21:00,
2013-04-30 01:36:00,43.9,38.0,30.29,ESE,108,0.0,1.0,79,0.00,,,0.00,0,weatherlink.com 1.10,2013-04-30 05:36:00,
2013-04-30 01:51:00,44.2,39.0,30.30,ESE,108,0.0,0.0,81,0.00,,,0.00,0,weatherlink.com 1.10,2013-04-30 05:51:00,
2013-04-30 02:06:00,44.7,39.0,30.29,ESE,108,0.0,1.0,80,0.00,,,0.00,0,weatherlink.com 1.10,2013-04-30 06:06:00,
2013-04-30 02:21:00,45.5,40.0,30.29,ESE,108,0.0,1.0,80,0.00,,,0.00,0,weatherlink.com 1.10,2013-04-30 06:21:00,
2013-04-30 02:36:00,45.9,40.0,30.28,ESE,108,0.0,1.0,79,0.00,,,0.00,0,weatherlink.com 1.10,2013-04-30 06:36:00,
2013-04-30 02:51:00,46.3,40.0,30.29,ESE,108,0.0,0.0,79,0.00,,,0.00,0,weatherlink.com 1.10,2013-04-30 06:51:00,
2013-04-30 03:06:00,46.4,40.0,30.29,ESE,108,0.0,0.0,77,0.00,,,0.00,0,weatherlink.com 1.10,2013-04-30 07:06:00,
2013-04-30 03:21:00,46.4,39.0,30.29,ESE,108,0.0,0.0,75,0.00,,,0.00,0,weatherlink.com 1.10,2013-04-30 07:21:00,
2013-04-30 03:36:00,46.3,39.0,30.29,ESE,108,0.0,0.0,77,0.00,,,0.00,0,weatherlink.com 1.10,2013-04-30 07:36:00,
2013-04-30 03:51:00,46.1,39.0,30.29,ESE,108,0.0,0.0,76,0.00,,,0.00,0,weatherlink.com 1.10,2013-04-30 07:51:00,
2013-04-30 04:06:00,45.9,39.0,30.29,ESE,108,0.0,1.0,77,0.00,,,0.00,0,weatherlink.com 1.10,2013-04-30 08:06:00,
2013-04-30 04:21:00,45.6,39.0,30.30,ESE,108,0.0,0.0,78,0.00,,,0.00,0,weatherlink.com 1.10,2013-04-30 08:21:00,
2013-04-30 04:36:00,45.4,39.0,30.30,ESE,108,0.0,0.0,78,0.00,,,0.00,0,weatherlink.com 1.10,2013-04-30 08:36:00,
2013-04-30 04:51:00,45.6,39.0,30.30,ESE,108,0.0,0.0,78,0.00,,,0.00,0,weatherlink.com 1.10,2013-04-30 08:51:00,
2013-04-30 05:06:00,45.9,39.0,30.30,ESE,108,0.0,0.0,78,0.00,,,0.00,0,weatherlink.com 1.10,2013-04-30 09:06:00,
2013-04-30 05:21:00,46.0,40.0,30.31,ESE,108,0.0,0.0,78,0.00,,,0.00,0,weatherlink.com 1.10,2013-04-30 09:21:00,
2013-04-30 05:36:00,46.0,39.0,30.31,ESE,108,0.0,0.0,76,0.00,,,0.00,0,weatherlink.com 1.10,2013-04-30 09:36:00,
2013-04-30 05:51:00,46.1,39.0,30.31,ESE,108,0.0,0.0,76,0.00,,,0.00,0,weatherlink.com 1.10,2013-04-30 09:51:00,
2013-04-30 06:06:00,46.3,39.0,30.32,ESE,108,0.0,0.0,76,0.00,,,0.00,7,weatherlink.com 1.10,2013-04-30 10:06:00,
2013-04-30 06:21:00,46.5,40.0,30.32,ESE,108,0.0,0.0,77,0.00,,,0.00,7,weatherlink.com 1.10,2013-04-30 10:21:00,
2013-04-30 06:36:00,46.8,40.0,30.32,ESE,108,0.0,0.0,78,0.00,,,0.00,18,weatherlink.com 1.10,2013-04-30 10:36:00,
2013-04-30 06:51:00,47.4,42.0,30.33,ESE,108,0.0,0.0,80,0.00,,,0.00,32,weatherlink.com 1.10,2013-04-30 10:51:00,
2013-04-30 07:06:00,48.2,41.0,30.33,ESE,108,0.0,0.0,76,0.00,,,0.00,44,weatherlink.com 1.10,2013-04-30 11:06:00,
2013-04-30 07:21:00,49.4,41.0,30.34,East,82,0.0,2.0,72,0.00,,,0.00,62,weatherlink.com 1.10,2013-04-30 11:21:00,
2013-04-30 07:36:00,50.6,41.0,30.34,East,83,0.0,2.0,70,0.00,,,0.00,84,weatherlink.com 1.10,2013-04-30 11:36:00,
2013-04-30 07:51:00,51.9,40.0,30.34,East,85,0.0,2.0,65,0.00,,,0.00,113,weatherlink.com 1.10,2013-04-30 11:51:00,
2013-04-30 08:06:00,53.9,40.0,30.34,East,87,0.0,2.0,60,0.00,,,0.00,114,weatherlink.com 1.10,2013-04-30 12:06:00,
2013-04-30 08:36:00,57.2,40.0,30.35,NNE,16,1.0,3.0,53,0.00,,,0.00,100,weatherlink.com 1.10,2013-04-30 12:36:00,
2013-04-30 08:52:00,59.0,36.0,30.36,South,175,0.0,8.0,42,0.00,,,0.00,83,weatherlink.com 1.10,2013-04-30 12:52:00,
2013-04-30 09:07:00,61.1,36.0,30.36,SSE,157,2.0,5.0,39,0.00,,,0.00,566,weatherlink.com 1.10,2013-04-30 13:07:00,
2013-04-30 09:22:00,63.0,36.0,30.36,East,92,2.0,8.0,37,0.00,,,0.00,596,weatherlink.com 1.10,2013-04-30 13:22:00,
2013-04-30 09:37:00,63.7,32.0,30.36,ESE,102,2.0,6.0,31,0.00,,,0.00,638,weatherlink.com 1.10,2013-04-30 13:37:00,
2013-04-30 09:52:00,64.0,35.0,30.36,SSW,205,3.0,5.0,34,0.00,,,0.00,687,weatherlink.com 1.10,2013-04-30 13:52:00,
2013-04-30 10:07:00,64.8,35.0,30.36,SE,144,1.0,8.0,33,0.00,,,0.00,738,weatherlink.com 1.10,2013-04-30 14:07:00,
2013-04-30 10:22:00,64.4,34.0,30.36,SE,140,4.0,8.0,32,0.00,,,0.00,782,weatherlink.com 1.10,2013-04-30 14:22:00,
2013-04-30 10:37:00,64.5,33.0,30.36,East,86,3.0,7.0,31,0.00,,,0.00,824,weatherlink.com 1.10,2013-04-30 14:37:00,
2013-04-30 10:52:00,65.1,34.0,30.36,ENE,74,2.0,6.0,31,0.00,,,0.00,868,weatherlink.com 1.10,2013-04-30 14:52:00,
2013-04-30 11:07:00,64.9,31.0,30.36,SSW,205,1.0,9.0,28,0.00,,,0.00,900,weatherlink.com 1.10,2013-04-30 15:07:00,
2013-04-30 11:22:00,65.4,30.0,30.36,South,171,1.0,8.0,27,0.00,,,0.00,933,weatherlink.com 1.10,2013-04-30 15:22:00,
2013-04-30 11:37:00,65.6,33.0,30.36,SE,136,0.0,7.0,30,0.00,,,0.00,960,weatherlink.com 1.10,2013-04-30 15:37:00,
2013-04-30 11:52:00,67.1,32.0,30.36,South,177,4.0,6.0,27,0.00,,,0.00,990,weatherlink.com 1.10,2013-04-30 15:52:00,
2013-04-30 12:07:00,66.2,32.0,30.36,SE,139,4.0,8.0,28,0.00,,,0.00,1009,weatherlink.com 1.10,2013-04-30 16:07:00,
2013-04-30 12:22:00,66.2,32.0,30.36,ESE,109,5.0,9.0,28,0.00,,,0.00,1021,weatherlink.com 1.10,2013-04-30 16:22:00,
2013-04-30 12:37:00,66.5,31.0,30.36,SE,129,3.0,12.0,27,0.00,,,0.00,1032,weatherlink.com 1.10,2013-04-30 16:37:00,
2013-04-30 12:52:00,66.6,30.0,30.35,SW,226,2.0,7.0,25,0.00,,,0.00,1039,weatherlink.com 1.10,2013-04-30 16:52:00,
2013-04-30 13:07:00,66.0,30.0,30.36,SE,135,2.0,7.0,26,0.00,,,0.00,1041,weatherlink.com 1.10,2013-04-30 17:07:00,
2013-04-30 13:23:00,66.1,31.0,30.35,ESE,121,4.0,14.0,27,0.00,,,0.00,1035,weatherlink.com 1.10,2013-04-30 17:23:00,
2013-04-30 13:38:00,66.0,31.0,30.35,East,95,1.0,9.0,27,0.00,,,0.00,1028,weatherlink.com 1.10,2013-04-30 17:38:00,
2013-04-30 13:53:00,66.6,31.0,30.35,South,188,2.0,9.0,27,0.00,,,0.00,1020,weatherlink.com 1.10,2013-04-30 17:53:00,
2013-04-30 14:08:00,68.0,32.0,30.35,NW,325,0.0,8.0,26,0.00,,,0.00,1004,weatherlink.com 1.10,2013-04-30 18:08:00,
2013-04-30 14:23:00,66.9,31.0,30.35,SW,221,3.0,8.0,26,0.00,,,0.00,977,weatherlink.com 1.10,2013-04-30 18:23:00,
2013-04-30 14:38:00,66.5,30.0,30.35,West,269,1.0,7.0,26,0.00,,,0.00,951,weatherlink.com 1.10,2013-04-30 18:38:00,
2013-04-30 14:53:00,66.7,32.0,30.35,SW,217,3.0,9.0,27,0.00,,,0.00,916,weatherlink.com 1.10,2013-04-30 18:53:00,
2013-04-30 15:08:00,66.8,29.0,30.34,East,80,3.0,7.0,24,0.00,,,0.00,872,weatherlink.com 1.10,2013-04-30 19:08:00,
2013-04-30 15:23:00,66.0,27.0,30.34,South,171,2.0,12.0,23,0.00,,,0.00,847,weatherlink.com 1.10,2013-04-30 19:23:00,
2013-04-30 15:38:00,65.8,30.0,30.34,SE,144,4.0,6.0,26,0.00,,,0.00,802,weatherlink.com 1.10,2013-04-30 19:38:00,
2013-04-30 15:53:00,66.6,30.0,30.34,East,82,1.0,6.0,25,0.00,,,0.00,756,weatherlink.com 1.10,2013-04-30 19:53:00,
2013-04-30 16:08:00,66.1,29.0,30.34,SE,132,4.0,8.0,25,0.00,,,0.00,708,weatherlink.com 1.10,2013-04-30 20:08:00,
2013-04-30 16:23:00,65.9,28.0,30.35,South,177,0.0,8.0,24,0.00,,,0.00,654,weatherlink.com 1.10,2013-04-30 20:23:00,
2013-04-30 16:38:00,65.9,28.0,30.35,SE,128,1.0,6.0,24,0.00,,,0.00,605,weatherlink.com 1.10,2013-04-30 20:38:00,
2013-04-30 16:53:00,64.7,30.0,30.35,ESE,121,1.0,9.0,27,0.00,,,0.00,547,weatherlink.com 1.10,2013-04-30 20:53:00,
2013-04-30 17:08:00,64.8,31.0,30.35,ESE,115,4.0,6.0,28,0.00,,,0.00,490,weatherlink.com 1.10,2013-04-30 21:08:00,
2013-04-30 17:23:00,63.4,30.0,30.35,NE,55,5.0,10.0,29,0.00,,,0.00,431,weatherlink.com 1.10,2013-04-30 21:23:00,
2013-04-30 17:38:00,63.5,30.0,30.35,SW,233,2.0,5.0,28,0.00,,,0.00,371,weatherlink.com 1.10,2013-04-30 21:38:00,
2013-04-30 17:53:00,62.9,29.0,30.35,ESE,109,2.0,5.0,28,0.00,,,0.00,97,weatherlink.com 1.10,2013-04-30 21:53:00,
2013-04-30 18:08:00,60.6,29.0,30.36,South,173,0.0,4.0,30,0.00,,,0.00,35,weatherlink.com 1.10,2013-04-30 22:08:00,
2013-04-30 18:23:00,59.4,29.0,30.36,South,176,2.0,5.0,32,0.00,,,0.00,42,weatherlink.com 1.10,2013-04-30 22:23:00,
2013-04-30 18:38:00,58.4,30.0,30.37,East,95,0.0,3.0,34,0.00,,,0.00,72,weatherlink.com 1.10,2013-04-30 22:38:00,
2013-04-30 18:53:00,57.6,28.0,30.37,SSW,199,0.0,4.0,32,0.00,,,0.00,23,weatherlink.com 1.10,2013-04-30 22:53:00,
2013-04-30 19:08:00,56.5,29.0,30.37,SE,132,0.0,1.0,35,0.00,,,0.00,14,weatherlink.com 1.10,2013-04-30 23:08:00,
2013-04-30 19:23:00,55.2,30.0,30.37,SE,132,0.0,0.0,39,0.00,,,0.00,9,weatherlink.com 1.10,2013-04-30 23:23:00,
2013-04-30 19:38:00,53.7,31.0,30.37,SE,132,0.0,1.0,42,0.00,,,0.00,5,weatherlink.com 1.10,2013-04-30 23:38:00,
2013-04-30 19:53:00,51.8,31.0,30.38,SE,132,0.0,0.0,45,0.00,,,0.00,0,weatherlink.com 1.10,2013-04-30 23:53:00,
2013-04-30 20:08:00,50.0,31.0,30.37,SE,132,0.0,1.0,48,0.00,,,0.00,0,weatherlink.com 1.10,2013-05-01 00:08:00,
2013-04-30 20:23:00,49.0,31.0,30.38,SE,132,0.0,0.0,51,0.00,,,0.00,0,weatherlink.com 1.10,2013-05-01 00:23:00,
2013-04-30 20:38:00,48.2,31.0,30.38,SE,132,0.0,1.0,52,0.00,,,0.00,0,weatherlink.com 1.10,2013-05-01 00:38:00,
2013-04-30 20:53:00,47.3,32.0,30.39,SE,132,0.0,0.0,55,0.00,,,0.00,0,weatherlink.com 1.10,2013-05-01 00:53:00,
2013-04-30 21:08:00,46.5,33.0,30.39,SE,132,0.0,1.0,59,0.00,,,0.00,0,weatherlink.com 1.10,2013-05-01 01:08:00,
2013-04-30 21:23:00,46.1,32.0,30.39,SE,132,0.0,0.0,58,0.00,,,0.00,0,weatherlink.com 1.10,2013-05-01 01:23:00,
2013-04-30 21:38:00,45.4,33.0,30.39,SE,125,0.0,2.0,62,0.00,,,0.00,0,weatherlink.com 1.10,2013-05-01 01:38:00,
2013-04-30 21:54:00,45.1,32.0,30.39,SE,125,0.0,1.0,61,0.00,,,0.00,0,weatherlink.com 1.10,2013-05-01 01:54:00,
2013-04-30 22:09:00,44.6,32.0,30.39,SE,125,0.0,0.0,62,0.00,,,0.00,0,weatherlink.com 1.10,2013-05-01 02:09:00,
2013-04-30 22:24:00,43.7,31.0,30.39,SE,125,0.0,0.0,62,0.00,,,0.00,0,weatherlink.com 1.10,2013-05-01 02:24:00,
2013-04-30 22:39:00,43.3,30.0,30.39,SE,125,0.0,0.0,61,0.00,,,0.00,0,weatherlink.com 1.10,2013-05-01 02:39:00,
2013-04-30 22:54:00,43.5,32.0,30.39,SE,125,0.0,0.0,65,0.00,,,0.00,0,weatherlink.com 1.10,2013-05-01 02:54:00,
2013-04-30 23:09:00,43.0,31.0,30.39,SE,125,0.0,0.0,64,0.00,,,0.00,0,weatherlink.com 1.10,2013-05-01 03:09:00,
2013-04-30 23:24:00,42.4,31.0,30.39,SE,125,0.0,0.0,65,0.00,,,0.00,0,weatherlink.com 1.10,2013-05-01 03:24:00,
2013-04-30 23:39:00,42.2,31.0,30.39,SE,125,0.0,0.0,65,0.00,,,0.00,0,weatherlink.com 1.10,2013-05-01 03:39:00,
2013-04-30 23:54:00,41.8,31.0,30.39,SE,125,0.0,0.0,65,0.00,,,0.00,0,weatherlink.com 1.10,2013-05-01 03:54:00,